Showing default

LQSAT, 40958

Orbit data source: Space-Track

LQSAT, 40958 is a payload satellite owned by Changguang WJ (CN) in SSO that was launched on Wed, 07 Oct 2015 UTC via a CHANG ZHENG 2D launch vehicle from the Jiuquan Satellite Launch Center, China (JSC). Payload-class satellites include a variety of spacecraft equipped with specific instruments for various scientific and technological missions. These include communications satellites like Starlink; space stations such as the ISS; scientific satellites like the Hubble; Earth observation satellites from companies like Planet Labs, Umbra, and HawkEye 360; GPS; miniature CubeSats for education and research; and military/defense satellites.

Loading next visibility...
Identifier
40958, 2015-057A
Orbit
SSO
Country
Flag of CNCN / PRC
Related business
Manufacturer
HARB/CIOMP
Mission
Non-operational Commercial Imaging
Bus & Motor
JL-1, Unknown motor
Mass
50 kg wet, 50 kg dry
Launch date (UTC)
2015-10-07 (10 years ago)
Launch vehicle
CHANG ZHENG 2D
Launch site
Jiuquan Satellite Launch Center, China (JSC)
Object type
Payload
Rocket body
Debris
Shape & HBR
Box + 2 Pan, 0.8 m
Radar Cross Section
2.000 m², Medium (>0.1 m² and < 1m²)

Expand to show TLE details & history
Last TLE update: 19 hours ago

TLE from 19 hours ago
0 LQSAT
1 40958U 15057A   25249.25826553  .00001199  00000-0  17974-3 0  9993
2 40958  97.6592 252.0337 0018704 112.3187 248.0008 14.76200364533412
Epoch: 2025-09-06T06:11Z
TLE epoch observation values (Epoch: 2025-09-06T06:11:54.141Z)
Latitude
-0.0001°
Longitude
173.46345°
Altitude
649.307 km
Speed
7.53 km/s
True Right ascension
16h 48m 08s
True Declination
0° 00' 00"
Sunlit
Object was in daylight at epoch
Visualization orbit readout
Latitude
Unknown
Longitude
Unknown
Altitude
Unknown
Speed
Unknown
Apparent Right ascension
Unknown
Apparent Declination
Unknown
Sunlit
N/A
Visualization observer readout
Local Sidereal Time
17:30:47
Azimuth
Unknown
Elevation
Unknown
Doppler factor
Unknown
Orbital elements
Apogee altitude
651.502 km
Perigee altitude
625.255 km
Semi-major axis
7,016.516 km
Eccentricity
0.00187
Inclination
97.6592°
RAAN
252.0337°
Arg. of periapsis
112.3187°
True anomaly
247.80225°
Mean anomaly
248.0008°
Eccentric anomaly
247.90151°
Mean motion
3.69284 °/min
Orbital period
97.49 mins
BSTAR
0.00017974
Loading maneuver chart data...
Computing Atmospheric mass density...
Loading historical data...
Loading historical data...
Loading historical data...
Loading historical data...
Loading historical data...
Loading historical data...
Loading historical data...
Other satellites on launch #57 in the year 2015 (2015-10-07 UTC)

Documentation

Showing up to 5 results
|